• Processing (Info)

  • MPEC 2015-F108: 2015 FC117

    The following Minor Planet Electronic Circular may be linked-to from your own Web pages, but must not otherwise be redistributed electronically.

    A form allowing access to any MPEC is at the bottom of this page.


    Read MPEC 2015-F107 Read MPEC 2015-F109


    M.P.E.C. 2015-F108                               Issued 2015 Mar. 25, 23:44 UT
    
         The Minor Planet Electronic Circulars contain information on unusual
             minor planets and routine data on comets.  They are published
       on behalf of Commission 20 of the International Astronomical Union by the
              Minor Planet Center, Smithsonian Astrophysical Observatory,
                              Cambridge, MA 02138, U.S.A.
    
                 Prepared using the Tamkin Foundation Computer Network
    
                                  MPC@CFA.HARVARD.EDU
                URL https://www.minorplanetcenter.net/    ISSN 1523-6714
    
                                      2015 FC117
    
    Observations:
         K15FB7C* C2015 03 24.33638 12 54 34.50 -07 23 32.1          19.6 VqEF108G96
         K15FB7C  C2015 03 24.34199 12 54 37.81 -07 20 19.4                qEF108G96
         K15FB7C  C2015 03 24.34759 12 54 41.03 -07 17 07.3          19.8 VqEF108G96
         K15FB7C  C2015 03 24.35320 12 54 44.29 -07 13 54.7                qEF108G96
         K15FB7C  C2015 03 24.40738 12 55 15.59 -06 43 07.7          19.9 VqEF108G96
         K15FB7C  C2015 03 24.40765 12 55 15.75 -06 42 58.9          19.8 VqEF108G96
         K15FB7C  C2015 03 24.40818 12 55 16.06 -06 42 40.9          19.7 VqEF108G96
         K15FB7C  C2015 03 24.40845 12 55 16.19 -06 42 32.2          20.2 VqEF108G96
         K15FB7C KC2015 03 25.11122 13 02 17.24 -00 27 05.8                qEF108J95
         K15FB7C KC2015 03 25.11628 13 02 19.82 -00 24 32.2                qEF108J95
         K15FB7C KC2015 03 25.12135 13 02 22.46 -00 21 58.6          19.8 RqEF108J95
         K15FB7C KC2015 03 25.93483 13 09 33.29 +05 58 19.3          20.3 VqEF108I93
         K15FB7C KC2015 03 25.94677 13 09 38.62 +06 03 28.9          19.9 VqEF108I93
         K15FB7C KC2015 03 25.95868 13 09 43.85 +06 08 37.3          20.1 VqEF108I93
    
    Observer details:
    G96 Mt. Lemmon Survey.  Observers R. E. Hill, D. C. Fuls.  Measurers
        E. J. Christensen, D. C. Fuls, A. R. Gibbs, A. D. Grauer, R. E. Hill,
        J. A. Johnson, R. A. Kowalski, S. M. Larson, R. G. Matheny, F. C. Shelly.
        1.5-m reflector + CCD.
    I93 St Pardon de Conques.  Observer F. Losse.  0.40-m f/3.7 reflector + CCD.
    J95 Great Shefford.  Observer P. Birtwhistle.  0.40-m f/6.0 Schmidt-Cassegrain
        + CCD.
    
    Orbital elements:
    2015 FC117                                               Earth MOID = 0.0421 AU
    Epoch 2015 June 27.0 TT = JDT 2457200.5                 MPC
    M  72.24223              (2000.0)            P               Q
    n   0.53108534     Peri.  311.40587     -0.70533995     -0.70829297
    a   1.5101723      Node   183.84058     +0.70762473     -0.70591700
    e   0.3722975      Incl.   25.25447     -0.04198564     +0.00150060
    P   1.86           H   25.6           G   0.15           U   8
    Residuals in seconds of arc
    150324 G96  0.5-  0.5-    150324 G96  0.1+  0.1-    150325 J95  0.1-  0.5+
    150324 G96  0.3+  0.1-    150324 G96  0.2+  0.1-    150325 I93  0.3-  0.3-
    150324 G96  0.0   0.2+    150324 G96  0.2-  0.5-    150325 I93  0.3+  0.1-
    150324 G96  0.1+  0.8+    150325 J95  0.4+  0.5-    150325 I93  0.1+  0.4+
    150324 G96  0.1+  0.3+    150325 J95  0.3-  0.1+
    
    Ephemeris:
    2015 FC117               a,e,i = 1.51, 0.37, 25                  q = 0.9479
    Date    TT    R. A. (2000) Decl.     Delta      r     Elong.  Phase     V
    2015 02 23    03 29 37.2 -64 38 30   0.2345  0.9566    75.2    91.1    25.6
    ...
    2015 03 10    05 16 03.3 -72 18 20   0.1158  0.9907    85.6    87.7    24.0
    ...
    2015 03 18    10 30 24.5 -65 29 51   0.05779 1.0180   111.8    65.2    21.8
    ...
    2015 03 24    12 50 48.9 -10 38 33   0.04627 1.0418   166.2    13.2    19.8
    2015 03 25    13 01 17.0 -01 21 48   0.04993 1.0460   168.2    11.3    19.9
    2015 03 26    13 09 59.5 +06 27 38   0.05482 1.0503   164.5    14.7    20.2
    ...
    2015 04 01    13 40 49.6 +31 00 48   0.09735 1.0772   141.8    35.0    22.1
    ...
    2015 04 09    13 57 11.2 +40 44 22   0.1652  1.1161   130.7    42.9    23.6
    ...
    2015 04 24    14 06 21.3 +44 24 25   0.2992  1.1951   123.0    44.9    25.1
    
    A. U. Tomatic                (C) Copyright 2015 MPC           M.P.E.C. 2015-F108
    

    Read MPEC 2015-F107 Read MPEC 2015-F109


    MPEC number:

    Enter an MPEC number in one of the following forms:

    • 1997-B01 (the full form)
    • J97B01 (the packed version of the full form)
    • B01 (the abbreviated form)